Memphis, TN

6:36 PM CDT on September 21, 2017 (GMT -0500)
Memphis International

Weather History for KMEM - March, 2013

Change the Weather History Date:

Tuesday, March 19, 2013

  Actual Average Record
Temperature  
Mean Temperature 49 °F 55 °F  
Max Temperature 59 °F 65 °F 83 °F (1945)
Min Temperature 38 °F 45 °F 14 °F (1923)
Degree Days  
Heating Degree Days 16 11  
Month to date heating degree days 294 250  
Since 1 July heating degree days 2492 2700  
Cooling Degree Days 0 1  
Month to date cooling degree days 2 4  
Year to date cooling degree days 11 7  
Moisture  
Dew Point 29 °F    
Average Humidity 57    
Maximum Humidity 93    
Minimum Humidity 21    
Precipitation  
Precipitation 0.00 in 0.17 in 5.26 in (1894)
Month to date precipitation 1.86 3.05  
Year to date precipitation 15.43 11.42  
Snow  
Snow 0.00 in 0.00 in 1.00 in (1965)
Month to date snowfall T 0.3  
Since 1 July snowfall 0.9 3.7  
Snow Depth 0.00 in    
Sea Level Pressure  
Sea Level Pressure 30.14 in    
Wind  
Wind Speed 8 mph (NNE)    
Max Wind Speed 16 mph    
Max Gust Speed 21 mph    
Visibility 10 miles    
Events      
T = Trace of Precipitation, MM = Missing Value Source: NWS Daily Summary

Daily Weather History Graph

Daily Weather History Graph

Search for Another Location

Airport or City:

Trip Planner

Search our weather history database for the weather conditions in past years. The results will help you decide how hot, cold, wet, or windy it might be!

Date:

Astronomy

Mar. 19, 2013 Rise Set
Actual Time 7:04 AM CDT 7:11 PM CDT
Civil Twilight 6:39 AM CDT 7:36 PM CDT
Nautical Twilight 6:09 AM CDT 8:05 PM CDT
Astronomical Twilight 5:40 AM CDT 8:35 PM CDT
Moon 12:07 PM CDT (3/19) 1:45 AM CDT (3/19)
Length of Visible Light 12h 56m
Length of Day
12h 06m
Waxing Crescent, 50% of the Moon is Illuminated
Mar 19
Waxing Crescent
Mar 19
First Quarter
Mar 27
Full
Apr 2
Last Quarter
Apr 10
New

Hourly Weather History & Observations

Time (CDT) Temp. Windchill Dew Point Humidity Pressure Visibility Wind Dir Wind Speed Gust Speed Precip Events Conditions
12:54 AM 44.1 °F - 41.0 °F 89% 30.06 in 10.0 mi Calm Calm - N/A   Clear
1:54 AM 42.1 °F - 39.9 °F 92% 30.08 in 10.0 mi Calm Calm - N/A   Clear
2:54 AM 41.0 °F - 37.0 °F 86% 30.06 in 10.0 mi Calm Calm - N/A   Clear
3:54 AM 39.9 °F - 37.9 °F 93% 30.05 in 10.0 mi Calm Calm - N/A   Clear
4:54 AM 41.0 °F - 39.0 °F 93% 30.04 in 10.0 mi Calm Calm - N/A   Clear
5:54 AM 39.0 °F - 37.9 °F 96% 30.07 in 10.0 mi Calm Calm - N/A   Clear
6:54 AM 39.0 °F 36.8 °F 37.0 °F 93% 30.08 in 10.0 mi North 3.5 mph - N/A   Partly Cloudy
7:54 AM 43.0 °F 38.2 °F 35.1 °F 74% 30.12 in 10.0 mi NNE 8.1 mph - N/A   Scattered Clouds
8:54 AM 45.0 °F 38.9 °F 33.1 °F 63% 30.14 in 10.0 mi NE 12.7 mph - N/A   Mostly Cloudy
9:54 AM 50.0 °F - 33.1 °F 52% 30.17 in 10.0 mi NNE 8.1 mph - N/A   Scattered Clouds
10:54 AM 52.0 °F - 30.9 °F 45% 30.20 in 10.0 mi NE 9.2 mph - N/A   Mostly Cloudy
11:54 AM 53.1 °F - 28.9 °F 40% 30.21 in 10.0 mi Variable 5.8 mph - N/A   Scattered Clouds
12:54 PM 55.9 °F - 27.0 °F 33% 30.20 in 10.0 mi NNE 6.9 mph - N/A   Mostly Cloudy
1:54 PM 57.9 °F - 25.0 °F 28% 30.19 in 10.0 mi North 8.1 mph - N/A   Mostly Cloudy
2:54 PM 57.0 °F - 21.9 °F 26% 30.17 in 10.0 mi North 8.1 mph - N/A   Overcast
3:54 PM 57.0 °F - 17.1 °F 21% 30.15 in 10.0 mi NE 12.7 mph - N/A   Mostly Cloudy
4:54 PM 57.0 °F - 21.0 °F 25% 30.14 in 10.0 mi NNE 10.4 mph - N/A   Overcast
5:54 PM 55.0 °F - 19.9 °F 25% 30.13 in 10.0 mi ENE 13.8 mph - N/A   Overcast
6:54 PM 54.0 °F - 23.0 °F 30% 30.14 in 10.0 mi NE 12.7 mph - N/A   Overcast
7:54 PM 53.1 °F - 21.9 °F 30% 30.16 in 10.0 mi NE 11.5 mph - N/A   Overcast
8:54 PM 52.0 °F - 23.0 °F 32% 30.17 in 10.0 mi NE 9.2 mph - N/A   Overcast
9:54 PM 51.1 °F - 21.0 °F 31% 30.18 in 10.0 mi NNE 13.8 mph - N/A   Overcast
10:54 PM 48.9 °F - 21.9 °F 35% 30.19 in 10.0 mi NNE 8.1 mph - N/A   Overcast
11:54 PM 48.0 °F - 21.0 °F 34% 30.20 in 10.0 mi NE 11.5 mph - N/A   Overcast